Time,TemperatureF,DewpointF,PressureIn,WindDirection,WindDirectionDegrees,WindSpeedMPH,WindSpeedGustMPH,Humidity,HourlyPrecipIn,Conditions,Clouds,dailyrainin,SoftwareType,DateUTC
2013-07-03 00:02:00,77.4,42.6,29.18,East,83,5.8,5.8,29,0.00,,,0.00,LWC V2.10 B1813,2013-07-03 05:02:00,
2013-07-03 00:07:00,77.2,42.4,29.18,ENE,57,2.2,4.0,29,0.00,,,0.00,LWC V2.10 B1813,2013-07-03 05:07:00,
2013-07-03 00:12:00,77.2,42.4,29.18,NE,34,2.7,5.4,29,0.00,,,0.00,LWC V2.10 B1813,2013-07-03 05:12:00,
2013-07-03 00:17:00,77.2,42.4,29.18,NNE,22,3.6,4.0,29,0.00,,,0.00,LWC V2.10 B1813,2013-07-03 05:17:00,
2013-07-03 00:22:00,77.0,42.3,29.18,ENE,61,5.4,5.4,29,0.00,,,0.00,LWC V2.10 B1813,2013-07-03 05:22:00,
2013-07-03 00:27:00,77.0,42.3,29.18,ENE,63,3.1,4.0,29,0.00,,,0.00,LWC V2.10 B1813,2013-07-03 05:27:00,
2013-07-03 00:29:00,77.0,42.3,29.18,ESE,114,3.1,4.0,29,0.00,,,0.00,LWC V2.10 B1813,2013-07-03 05:29:00,
2013-07-03 00:34:00,76.8,42.1,29.18,ESE,118,3.6,3.6,29,0.00,,,0.00,LWC V2.10 B1813,2013-07-03 05:34:00,
2013-07-03 00:39:00,76.8,42.1,29.18,ENE,69,2.7,8.1,29,0.00,,,0.00,LWC V2.10 B1813,2013-07-03 05:39:00,
2013-07-03 00:44:00,76.8,42.1,29.18,East,89,3.6,3.6,29,0.00,,,0.00,LWC V2.10 B1813,2013-07-03 05:44:00,
2013-07-03 00:49:00,76.8,42.1,29.18,ENE,62,4.0,7.6,29,0.00,,,0.00,LWC V2.10 B1813,2013-07-03 05:49:00,
2013-07-03 00:54:00,76.6,42.9,29.18,ENE,62,2.7,6.3,30,0.00,,,0.00,LWC V2.10 B1813,2013-07-03 05:54:00,
2013-07-03 00:59:00,76.6,42.9,29.18,NNE,23,3.6,4.9,30,0.00,,,0.00,LWC V2.10 B1813,2013-07-03 05:59:00,
2013-07-03 01:04:00,76.5,42.7,29.18,ENE,68,3.6,6.3,30,0.00,,,0.00,LWC V2.10 B1813,2013-07-03 06:04:00,
2013-07-03 01:09:00,76.3,42.6,29.18,NE,36,3.6,5.4,30,0.00,,,0.00,LWC V2.10 B1813,2013-07-03 06:09:00,
2013-07-03 01:14:00,76.3,43.4,29.18,NE,34,2.7,4.9,31,0.00,,,0.00,LWC V2.10 B1813,2013-07-03 06:14:00,
2013-07-03 01:16:00,76.1,43.2,29.18,ENE,65,4.0,5.8,31,0.00,,,0.00,LWC V2.10 B1813,2013-07-03 06:16:00,
2013-07-03 01:21:00,75.9,43.1,29.18,ENE,58,2.7,4.0,31,0.00,,,0.00,LWC V2.10 B1813,2013-07-03 06:21:00,
2013-07-03 01:26:00,75.7,42.9,29.18,NE,34,0.0,4.9,31,0.00,,,0.00,LWC V2.10 B1813,2013-07-03 06:26:00,
2013-07-03 01:31:00,75.6,42.8,29.18,NE,48,5.8,5.8,31,0.00,,,0.00,LWC V2.10 B1813,2013-07-03 06:31:00,
2013-07-03 01:36:00,75.4,42.6,29.18,NNE,28,3.1,4.0,31,0.00,,,0.00,LWC V2.10 B1813,2013-07-03 06:36:00,
2013-07-03 01:41:00,75.4,42.6,29.18,NE,49,3.1,4.9,31,0.00,,,0.00,LWC V2.10 B1813,2013-07-03 06:41:00,
2013-07-03 01:46:00,75.4,42.6,29.18,North,7,3.1,4.9,31,0.00,,,0.00,LWC V2.10 B1813,2013-07-03 06:46:00,
2013-07-03 01:51:00,75.2,42.5,29.18,NE,48,4.0,7.6,31,0.00,,,0.00,LWC V2.10 B1813,2013-07-03 06:51:00,
2013-07-03 01:56:00,75.2,42.5,29.18,East,86,3.1,4.0,31,0.00,,,0.00,LWC V2.10 B1813,2013-07-03 06:56:00,
2013-07-03 02:01:00,75.2,42.5,29.18,ENE,59,3.1,3.6,31,0.00,,,0.00,LWC V2.10 B1813,2013-07-03 07:01:00,
2013-07-03 02:06:00,75.2,42.5,29.18,ESE,109,3.1,4.9,31,0.00,,,0.00,LWC V2.10 B1813,2013-07-03 07:06:00,
2013-07-03 02:11:00,75.0,43.1,29.18,ENE,67,3.6,6.3,32,0.00,,,0.00,LWC V2.10 B1813,2013-07-03 07:11:00,
2013-07-03 02:16:00,74.8,43.0,29.18,ESE,112,4.0,5.4,32,0.00,,,0.00,LWC V2.10 B1813,2013-07-03 07:16:00,
2013-07-03 02:21:00,74.8,43.0,29.18,SE,125,2.7,5.4,32,0.00,,,0.00,LWC V2.10 B1813,2013-07-03 07:21:00,
2013-07-03 02:26:00,74.8,43.0,29.18,North,6,5.4,5.4,32,0.00,,,0.00,LWC V2.10 B1813,2013-07-03 07:26:00,
2013-07-03 02:31:00,74.8,43.0,29.18,East,83,3.1,5.8,32,0.00,,,0.00,LWC V2.10 B1813,2013-07-03 07:31:00,
2013-07-03 02:36:00,74.8,43.0,29.18,East,85,2.2,7.6,32,0.00,,,0.00,LWC V2.10 B1813,2013-07-03 07:36:00,
2013-07-03 02:41:00,74.8,43.0,29.18,SE,141,3.1,6.3,32,0.00,,,0.00,LWC V2.10 B1813,2013-07-03 07:41:00,
2013-07-03 02:46:00,74.8,43.0,29.18,ENE,57,3.1,4.9,32,0.00,,,0.00,LWC V2.10 B1813,2013-07-03 07:46:00,
2013-07-03 02:51:00,74.8,43.0,29.18,SE,136,2.7,5.8,32,0.00,,,0.00,LWC V2.10 B1813,2013-07-03 07:51:00,
2013-07-03 02:56:00,74.8,43.0,29.18,ESE,104,4.0,6.3,32,0.00,,,0.00,LWC V2.10 B1813,2013-07-03 07:56:00,
2013-07-03 03:01:00,74.8,43.0,29.18,ESE,122,3.6,4.0,32,0.00,,,0.00,LWC V2.10 B1813,2013-07-03 08:01:00,
2013-07-03 03:06:00,74.8,43.0,29.18,East,87,3.1,6.3,32,0.00,,,0.00,LWC V2.10 B1813,2013-07-03 08:06:00,
2013-07-03 03:09:00,74.8,43.0,29.18,East,101,3.1,5.4,32,0.00,,,0.00,LWC V2.10 B1813,2013-07-03 08:09:00,
2013-07-03 03:13:00,75.0,43.1,29.18,SE,144,5.8,5.8,32,0.00,,,0.00,LWC V2.10 B1813,2013-07-03 08:13:00,
2013-07-03 03:17:00,75.0,43.1,29.18,ENE,68,3.1,4.0,32,0.00,,,0.00,LWC V2.10 B1813,2013-07-03 08:17:00,
2013-07-03 03:22:00,74.8,43.0,29.18,East,93,2.7,3.6,32,0.00,,,0.00,LWC V2.10 B1813,2013-07-03 08:22:00,
2013-07-03 03:27:00,74.7,43.6,29.18,East,92,4.0,4.0,33,0.00,,,0.00,LWC V2.10 B1813,2013-07-03 08:27:00,
2013-07-03 03:32:00,74.3,43.3,29.18,East,90,3.1,6.3,33,0.00,,,0.00,LWC V2.10 B1813,2013-07-03 08:32:00,
2013-07-03 03:37:00,74.3,43.3,29.18,NNE,21,2.7,5.4,33,0.00,,,0.00,LWC V2.10 B1813,2013-07-03 08:37:00,
2013-07-03 03:38:00,74.3,43.3,29.18,ENE,76,2.7,5.4,33,0.00,,,0.00,LWC V2.10 B1813,2013-07-03 08:38:00,
2013-07-03 03:41:00,74.3,43.3,29.18,East,83,4.9,5.4,33,0.00,,,0.00,LWC V2.10 B1813,2013-07-03 08:41:00,
2013-07-03 03:46:00,74.1,43.2,29.18,NE,52,5.8,5.8,33,0.00,,,0.00,LWC V2.10 B1813,2013-07-03 08:46:00,
2013-07-03 03:51:00,74.1,43.2,29.18,NE,35,4.0,4.0,33,0.00,,,0.00,LWC V2.10 B1813,2013-07-03 08:51:00,
2013-07-03 03:56:00,74.1,43.9,29.18,East,90,4.9,5.4,34,0.00,,,0.00,LWC V2.10 B1813,2013-07-03 08:56:00,
2013-07-03 04:01:00,73.9,43.8,29.18,East,83,2.2,4.0,34,0.00,,,0.00,LWC V2.10 B1813,2013-07-03 09:01:00,
2013-07-03 04:06:00,73.8,43.6,29.18,NNE,29,2.7,5.4,34,0.00,,,0.00,LWC V2.10 B1813,2013-07-03 09:06:00,
2013-07-03 04:11:00,74.3,44.1,29.18,East,84,2.7,4.9,34,0.00,,,0.00,LWC V2.10 B1813,2013-07-03 09:11:00,
2013-07-03 04:16:00,74.1,43.9,29.18,ENE,58,2.2,4.9,34,0.00,,,0.00,LWC V2.10 B1813,2013-07-03 09:16:00,
2013-07-03 04:21:00,73.9,44.5,29.18,ESE,106,5.4,5.4,35,0.00,,,0.00,LWC V2.10 B1813,2013-07-03 09:21:00,
2013-07-03 04:26:00,73.6,44.2,29.18,East,80,2.7,2.7,35,0.00,,,0.00,LWC V2.10 B1813,2013-07-03 09:26:00,
2013-07-03 04:31:00,73.2,43.9,29.18,ESE,117,3.1,3.1,35,0.00,,,0.00,LWC V2.10 B1813,2013-07-03 09:31:00,
2013-07-03 04:36:00,73.0,44.5,29.18,NE,54,0.0,3.1,36,0.00,,,0.00,LWC V2.10 B1813,2013-07-03 09:36:00,
2013-07-03 04:41:00,72.9,44.3,29.18,NE,45,0.0,3.6,36,0.00,,,0.00,LWC V2.10 B1813,2013-07-03 09:41:00,
2013-07-03 04:46:00,72.7,44.2,29.18,East,85,0.0,3.6,36,0.00,,,0.00,LWC V2.10 B1813,2013-07-03 09:46:00,
2013-07-03 04:51:00,72.5,44.0,29.18,ENE,59,0.0,2.7,36,0.00,,,0.00,LWC V2.10 B1813,2013-07-03 09:51:00,
2013-07-03 04:56:00,72.3,44.6,29.18,East,93,2.2,2.2,37,0.00,,,0.00,LWC V2.10 B1813,2013-07-03 09:56:00,
2013-07-03 05:01:00,72.1,44.4,29.18,ENE,72,0.0,0.0,37,0.00,,,0.00,LWC V2.10 B1813,2013-07-03 10:01:00,
2013-07-03 05:04:00,72.0,44.3,29.18,East,97,0.0,2.7,37,0.00,,,0.00,LWC V2.10 B1813,2013-07-03 10:04:00,
2013-07-03 05:05:00,72.0,44.3,29.18,ESE,115,0.0,2.2,37,0.00,,,0.00,LWC V2.10 B1813,2013-07-03 10:05:00,
2013-07-03 05:10:00,72.0,45.0,29.18,ESE,103,0.0,2.7,38,0.00,,,0.00,LWC V2.10 B1813,2013-07-03 10:10:00,
2013-07-03 05:15:00,71.8,44.8,29.18,ESE,103,0.0,0.0,38,0.00,,,0.00,LWC V2.10 B1813,2013-07-03 10:15:00,
2013-07-03 05:20:00,71.4,44.5,29.18,ESE,103,0.0,0.0,38,0.00,,,0.00,LWC V2.10 B1813,2013-07-03 10:20:00,
2013-07-03 05:25:00,71.2,45.0,29.18,ESE,103,0.0,0.0,39,0.00,,,0.00,LWC V2.10 B1813,2013-07-03 10:25:00,
2013-07-03 05:30:00,71.2,45.0,29.18,ESE,103,0.0,0.0,39,0.00,,,0.00,LWC V2.10 B1813,2013-07-03 10:30:00,
2013-07-03 05:35:00,71.1,44.8,29.18,East,101,0.0,0.0,39,0.00,,,0.00,LWC V2.10 B1813,2013-07-03 10:35:00,
2013-07-03 05:40:00,70.7,44.5,29.18,ESE,103,0.0,0.0,39,0.00,,,0.00,LWC V2.10 B1813,2013-07-03 10:40:00,
2013-07-03 05:45:00,70.5,45.0,29.18,NNE,12,0.0,0.0,40,0.00,,,0.00,LWC V2.10 B1813,2013-07-03 10:45:00,
2013-07-03 05:48:00,70.3,44.9,29.18,NNE,28,0.0,2.2,40,0.00,,,0.00,LWC V2.10 B1813,2013-07-03 10:48:00,
2013-07-03 05:50:00,70.5,45.0,29.18,North,357,0.0,3.6,40,0.00,,,0.00,LWC V2.10 B1813,2013-07-03 10:50:00,
2013-07-03 05:54:00,70.7,45.2,29.18,North,357,0.0,0.0,40,0.00,,,0.00,LWC V2.10 B1813,2013-07-03 10:54:00,
2013-07-03 05:59:00,70.7,45.8,29.18,NNE,23,0.0,0.0,41,0.00,,,0.00,LWC V2.10 B1813,2013-07-03 10:59:00,
2013-07-03 06:04:00,70.5,45.7,29.18,North,357,0.0,2.7,41,0.00,,,0.00,LWC V2.10 B1813,2013-07-03 11:04:00,
2013-07-03 06:09:00,70.5,45.7,29.18,North,357,0.0,0.0,41,0.00,,,0.00,LWC V2.10 B1813,2013-07-03 11:09:00,
2013-07-03 06:14:00,70.5,45.7,29.18,ESE,104,3.1,3.1,41,0.00,,,0.00,LWC V2.10 B1813,2013-07-03 11:14:00,
2013-07-03 06:19:00,70.2,45.3,29.18,ESE,104,0.0,0.0,41,0.00,,,0.00,LWC V2.10 B1813,2013-07-03 11:19:00,
2013-07-03 06:24:00,70.2,46.0,29.18,West,272,0.0,0.0,42,0.00,,,0.00,LWC V2.10 B1813,2013-07-03 11:24:00,
2013-07-03 06:30:00,70.2,46.0,29.18,West,272,0.0,0.0,42,0.00,,,0.00,LWC V2.10 B1813,2013-07-03 11:30:00,
2013-07-03 06:35:00,70.3,46.1,29.18,West,272,0.0,0.0,42,0.00,,,0.00,LWC V2.10 B1813,2013-07-03 11:35:00,
2013-07-03 06:40:00,70.2,46.0,29.18,West,272,0.0,0.0,42,0.00,,,0.00,LWC V2.10 B1813,2013-07-03 11:40:00,
2013-07-03 06:44:00,70.0,46.4,29.18,NW,322,3.1,3.1,43,0.00,,,0.00,LWC V2.10 B1813,2013-07-03 11:44:00,
2013-07-03 06:49:00,69.1,46.8,29.18,NW,322,0.0,0.0,45,0.00,,,0.00,LWC V2.10 B1813,2013-07-03 11:49:00,
2013-07-03 06:54:00,68.5,46.9,29.18,NW,322,0.0,0.0,46,0.00,,,0.00,LWC V2.10 B1813,2013-07-03 11:54:00,
2013-07-03 06:59:00,68.2,47.2,29.18,NNW,329,0.0,2.7,47,0.00,,,0.00,LWC V2.10 B1813,2013-07-03 11:59:00,
2013-07-03 07:01:00,68.2,47.2,29.18,NNW,329,0.0,0.0,47,0.00,,,0.00,LWC V2.10 B1813,2013-07-03 12:01:00,
2013-07-03 07:06:00,68.0,47.0,29.18,North,11,0.0,2.7,47,0.00,,,0.00,LWC V2.10 B1813,2013-07-03 12:06:00,
2013-07-03 07:11:00,67.8,46.8,29.18,NNE,20,2.2,4.0,47,0.00,,,0.00,LWC V2.10 B1813,2013-07-03 12:11:00,
2013-07-03 07:16:00,67.6,47.2,29.18,NW,309,3.1,4.0,48,0.00,,,0.00,LWC V2.10 B1813,2013-07-03 12:16:00,
2013-07-03 07:21:00,67.5,47.1,29.18,NNW,341,0.0,2.2,48,0.00,,,0.00,LWC V2.10 B1813,2013-07-03 12:21:00,
2013-07-03 07:26:00,67.3,46.9,29.18,NNW,329,2.2,2.7,48,0.00,,,0.00,LWC V2.10 B1813,2013-07-03 12:26:00,
2013-07-03 07:31:00,67.3,47.5,29.18,NNW,327,0.0,3.6,49,0.00,,,0.00,LWC V2.10 B1813,2013-07-03 12:31:00,
2013-07-03 07:36:00,66.9,47.7,29.18,NNW,339,0.0,0.0,50,0.00,,,0.00,LWC V2.10 B1813,2013-07-03 12:36:00,
2013-07-03 07:41:00,66.9,48.2,29.18,WNW,287,0.0,0.0,51,0.00,,,0.00,LWC V2.10 B1813,2013-07-03 12:41:00,
2013-07-03 07:46:00,66.7,48.5,29.18,WNW,285,2.7,3.6,52,0.00,,,0.00,LWC V2.10 B1813,2013-07-03 12:46:00,
2013-07-03 07:50:00,66.6,48.9,29.18,WSW,250,3.6,3.6,53,0.00,,,0.00,LWC V2.10 B1813,2013-07-03 12:50:00,
2013-07-03 07:56:00,66.6,48.9,29.18,WSW,242,2.7,3.1,53,0.00,,,0.00,LWC V2.10 B1813,2013-07-03 12:56:00,
2013-07-03 08:01:00,66.7,49.1,29.18,West,274,2.7,5.4,53,0.00,,,0.00,LWC V2.10 B1813,2013-07-03 13:01:00,
2013-07-03 08:06:00,66.9,48.7,29.18,West,277,0.0,2.2,52,0.00,,,0.00,LWC V2.10 B1813,2013-07-03 13:06:00,
2013-07-03 08:11:00,67.3,48.5,29.18,West,271,2.7,3.6,51,0.00,,,0.00,LWC V2.10 B1813,2013-07-03 13:11:00,
2013-07-03 08:16:00,67.5,48.7,29.18,West,274,0.0,3.1,51,0.00,,,0.00,LWC V2.10 B1813,2013-07-03 13:16:00,
2013-07-03 08:21:00,67.8,48.5,29.18,West,276,0.0,0.0,50,0.00,,,0.00,LWC V2.10 B1813,2013-07-03 13:21:00,
2013-07-03 08:26:00,68.2,48.3,29.18,NNW,328,3.1,3.1,49,0.00,,,0.00,LWC V2.10 B1813,2013-07-03 13:26:00,
2013-07-03 08:31:00,68.7,48.8,29.18,NNW,334,2.2,2.7,49,0.00,,,0.00,LWC V2.10 B1813,2013-07-03 13:31:00,
2013-07-03 08:34:00,69.1,49.1,29.18,NNW,338,2.2,3.1,49,0.00,,,0.00,LWC V2.10 B1813,2013-07-03 13:34:00,
2013-07-03 08:36:00,69.3,49.3,29.18,NW,314,0.0,3.1,49,0.00,,,0.00,LWC V2.10 B1813,2013-07-03 13:36:00,
2013-07-03 08:41:00,69.8,49.2,29.18,NNW,335,0.0,0.0,48,0.00,,,0.00,LWC V2.10 B1813,2013-07-03 13:41:00,
2013-07-03 08:46:00,70.3,49.7,29.18,West,272,0.0,0.0,48,0.00,,,0.00,LWC V2.10 B1813,2013-07-03 13:46:00,
2013-07-03 08:51:00,70.7,49.5,29.20,WNW,292,2.7,2.7,47,0.00,,,0.00,LWC V2.10 B1813,2013-07-03 13:51:00,
2013-07-03 08:56:00,71.1,49.8,29.20,WNW,299,2.7,3.1,47,0.00,,,0.00,LWC V2.10 B1813,2013-07-03 13:56:00,
2013-07-03 09:01:00,71.6,50.3,29.20,WNW,297,0.0,0.0,47,0.00,,,0.00,LWC V2.10 B1813,2013-07-03 14:01:00,
2013-07-03 09:06:00,72.1,50.2,29.20,WNW,297,0.0,0.0,46,0.00,,,0.00,LWC V2.10 B1813,2013-07-03 14:06:00,
2013-07-03 09:11:00,72.7,50.7,29.20,West,279,0.0,2.7,46,0.00,,,0.00,LWC V2.10 B1813,2013-07-03 14:11:00,
2013-07-03 09:16:00,73.4,51.3,29.20,NW,310,0.0,0.0,46,0.00,,,0.00,LWC V2.10 B1813,2013-07-03 14:16:00,
2013-07-03 09:21:00,73.9,51.2,29.20,WNW,284,3.1,3.1,45,0.00,,,0.00,LWC V2.10 B1813,2013-07-03 14:21:00,
2013-07-03 09:26:00,74.5,51.7,29.20,NW,309,2.7,3.1,45,0.00,,,0.00,LWC V2.10 B1813,2013-07-03 14:26:00,
2013-07-03 09:31:00,74.8,52.1,29.20,WNW,302,2.7,3.1,45,0.00,,,0.00,LWC V2.10 B1813,2013-07-03 14:31:00,
2013-07-03 09:36:00,75.6,52.1,29.20,West,276,2.2,3.6,44,0.00,,,0.00,LWC V2.10 B1813,2013-07-03 14:36:00,
2013-07-03 09:37:00,75.7,52.3,29.20,WNW,283,2.7,3.6,44,0.00,,,0.00,LWC V2.10 B1813,2013-07-03 14:37:00,
2013-07-03 09:42:00,76.1,52.6,29.20,West,272,2.2,3.1,44,0.00,,,0.00,LWC V2.10 B1813,2013-07-03 14:42:00,
2013-07-03 09:47:00,76.5,52.9,29.20,WNW,298,0.0,3.6,44,0.00,,,0.00,LWC V2.10 B1813,2013-07-03 14:47:00,
2013-07-03 09:52:00,76.6,53.1,29.20,WSW,238,3.1,4.0,44,0.00,,,0.00,LWC V2.10 B1813,2013-07-03 14:52:00,
2013-07-03 09:57:00,77.5,53.9,29.20,West,274,0.0,2.7,44,0.00,,,0.00,LWC V2.10 B1813,2013-07-03 14:57:00,
2013-07-03 10:02:00,78.1,53.7,29.20,West,263,2.2,2.2,43,0.00,,,0.00,LWC V2.10 B1813,2013-07-03 15:02:00,
2013-07-03 10:07:00,79.2,54.7,29.20,West,281,0.0,0.0,43,0.00,,,0.00,LWC V2.10 B1813,2013-07-03 15:07:00,
2013-07-03 10:12:00,79.9,55.4,29.20,WNW,285,0.0,0.0,43,0.00,,,0.00,LWC V2.10 B1813,2013-07-03 15:12:00,
2013-07-03 10:15:00,80.2,55.0,29.20,WNW,292,2.7,3.1,42,0.00,,,0.00,LWC V2.10 B1813,2013-07-03 15:15:00,
2013-07-03 10:20:00,81.0,55.7,29.20,NW,304,0.0,3.1,42,0.00,,,0.00,LWC V2.10 B1813,2013-07-03 15:20:00,
2013-07-03 10:25:00,81.9,56.5,29.20,South,178,4.0,4.0,42,0.00,,,0.00,LWC V2.10 B1813,2013-07-03 15:25:00,
2013-07-03 10:27:00,81.7,55.7,29.20,SSW,211,2.2,4.0,41,0.00,,,0.00,LWC V2.10 B1813,2013-07-03 15:27:00,
2013-07-03 10:31:00,82.0,55.3,29.20,West,276,3.1,4.0,40,0.00,,,0.00,LWC V2.10 B1813,2013-07-03 15:31:00,
2013-07-03 10:36:00,82.4,54.9,29.20,WSW,255,4.9,4.9,39,0.00,,,0.00,LWC V2.10 B1813,2013-07-03 15:36:00,
2013-07-03 10:39:00,82.4,54.2,29.20,SW,234,5.4,5.4,38,0.00,,,0.00,LWC V2.10 B1813,2013-07-03 15:39:00,
2013-07-03 10:44:00,82.8,54.5,29.20,SW,215,4.0,5.8,38,0.00,,,0.00,LWC V2.10 B1813,2013-07-03 15:44:00,
2013-07-03 10:49:00,82.9,53.2,29.20,SW,226,3.6,4.0,36,0.00,,,0.00,LWC V2.10 B1813,2013-07-03 15:49:00,
2013-07-03 10:54:00,83.1,53.4,29.20,SW,222,4.0,4.0,36,0.00,,,0.00,LWC V2.10 B1813,2013-07-03 15:54:00,
2013-07-03 10:59:00,83.8,54.0,29.20,South,188,2.7,4.9,36,0.00,,,0.00,LWC V2.10 B1813,2013-07-03 15:59:00,
2013-07-03 11:04:00,85.1,54.3,29.18,East,85,3.6,5.4,35,0.00,,,0.00,LWC V2.10 B1813,2013-07-03 16:04:00,
2013-07-03 11:09:00,85.1,53.5,29.18,SW,227,2.7,4.5,34,0.00,,,0.00,LWC V2.10 B1813,2013-07-03 16:09:00,
2013-07-03 11:14:00,85.6,54.0,29.18,NNE,18,2.7,3.6,34,0.00,,,0.00,LWC V2.10 B1813,2013-07-03 16:14:00,
2013-07-03 11:19:00,86.4,53.8,29.18,NW,304,4.0,4.0,33,0.00,,,0.00,LWC V2.10 B1813,2013-07-03 16:19:00,
2013-07-03 11:24:00,86.2,53.7,29.18,NW,306,2.2,5.8,33,0.00,,,0.00,LWC V2.10 B1813,2013-07-03 16:24:00,
2013-07-03 11:29:00,86.2,52.8,29.18,NNW,330,3.6,3.6,32,0.00,,,0.00,LWC V2.10 B1813,2013-07-03 16:29:00,
2013-07-03 11:34:00,86.4,53.0,29.18,West,267,4.0,4.0,32,0.00,,,0.00,LWC V2.10 B1813,2013-07-03 16:34:00,
2013-07-03 11:39:00,86.0,52.7,29.18,WSW,250,3.6,5.8,32,0.00,,,0.00,LWC V2.10 B1813,2013-07-03 16:39:00,
2013-07-03 11:44:00,86.2,52.0,29.18,SW,222,5.4,6.3,31,0.00,,,0.00,LWC V2.10 B1813,2013-07-03 16:44:00,
2013-07-03 11:49:00,86.5,52.3,29.18,NNE,27,5.8,5.8,31,0.00,,,0.00,LWC V2.10 B1813,2013-07-03 16:49:00,
2013-07-03 11:54:00,87.1,51.8,29.18,West,263,5.4,8.7,30,0.00,,,0.00,LWC V2.10 B1813,2013-07-03 16:54:00,
2013-07-03 11:59:00,87.6,52.3,29.18,NNW,330,5.4,8.3,30,0.00,,,0.00,LWC V2.10 B1813,2013-07-03 16:59:00,
2013-07-03 12:04:00,87.4,51.2,29.18,WSW,239,3.1,4.0,29,0.00,,,0.00,LWC V2.10 B1813,2013-07-03 17:04:00,
2013-07-03 12:09:00,88.2,51.9,29.18,NNE,16,4.0,5.4,29,0.00,,,0.00,LWC V2.10 B1813,2013-07-03 17:09:00,
2013-07-03 12:14:00,87.8,51.5,29.18,North,353,0.0,3.1,29,0.00,,,0.00,LWC V2.10 B1813,2013-07-03 17:14:00,
2013-07-03 12:19:00,88.5,52.2,29.18,North,5,8.1,8.1,29,0.00,,,0.00,LWC V2.10 B1813,2013-07-03 17:19:00,
2013-07-03 12:24:00,88.0,50.8,29.18,West,268,5.8,7.2,28,0.00,,,0.00,LWC V2.10 B1813,2013-07-03 17:24:00,
2013-07-03 12:29:00,88.2,50.9,29.18,West,270,3.1,5.4,28,0.00,,,0.00,LWC V2.10 B1813,2013-07-03 17:29:00,
2013-07-03 12:34:00,89.1,51.7,29.18,ENE,68,7.6,7.6,28,0.00,,,0.00,LWC V2.10 B1813,2013-07-03 17:34:00,
2013-07-03 12:39:00,89.6,52.1,29.18,ESE,119,3.1,6.3,28,0.00,,,0.00,LWC V2.10 B1813,2013-07-03 17:39:00,
2013-07-03 12:41:00,89.6,52.1,29.18,ENE,75,5.8,5.8,28,0.00,,,0.00,LWC V2.10 B1813,2013-07-03 17:41:00,
2013-07-03 12:46:00,90.1,52.6,29.18,NNE,25,4.9,4.9,28,0.00,,,0.00,LWC V2.10 B1813,2013-07-03 17:46:00,
2013-07-03 12:51:00,89.6,52.1,29.18,NNW,339,8.3,10.1,28,0.00,,,0.00,LWC V2.10 B1813,2013-07-03 17:51:00,
2013-07-03 12:56:00,89.1,51.7,29.18,WNW,291,5.4,8.7,28,0.00,,,0.00,LWC V2.10 B1813,2013-07-03 17:56:00,
2013-07-03 13:01:00,89.1,51.7,29.18,NW,325,0.0,5.4,28,0.00,,,0.00,LWC V2.10 B1813,2013-07-03 18:01:00,
2013-07-03 13:06:00,90.0,52.4,29.18,NW,322,3.6,8.1,28,0.00,,,0.00,LWC V2.10 B1813,2013-07-03 18:06:00,
2013-07-03 13:11:00,90.9,53.2,29.18,NNW,327,4.5,4.5,28,0.00,,,0.00,LWC V2.10 B1813,2013-07-03 18:11:00,
2013-07-03 13:16:00,90.9,52.2,29.15,North,4,6.3,6.7,27,0.00,,,0.00,LWC V2.10 B1813,2013-07-03 18:16:00,
2013-07-03 13:21:00,89.6,51.1,29.15,NW,309,3.1,4.9,27,0.00,,,0.00,LWC V2.10 B1813,2013-07-03 18:21:00,
2013-07-03 13:26:00,89.2,50.8,29.15,North,3,2.7,2.7,27,0.00,,,0.00,LWC V2.10 B1813,2013-07-03 18:26:00,
2013-07-03 13:31:00,90.3,50.7,29.15,SE,126,4.0,4.0,26,0.00,,,0.00,LWC V2.10 B1813,2013-07-03 18:31:00,
2013-07-03 13:36:00,90.3,49.7,29.15,NNE,16,5.4,5.8,25,0.00,,,0.00,LWC V2.10 B1813,2013-07-03 18:36:00,
2013-07-03 13:41:00,90.5,49.8,29.15,North,357,4.0,8.7,25,0.00,,,0.00,LWC V2.10 B1813,2013-07-03 18:41:00,
2013-07-03 13:46:00,90.1,48.4,29.15,NNE,31,4.0,6.3,24,0.00,,,0.00,LWC V2.10 B1813,2013-07-03 18:46:00,
2013-07-03 13:51:00,90.9,49.0,29.15,NNE,20,3.1,10.5,24,0.00,,,0.00,LWC V2.10 B1813,2013-07-03 18:51:00,
2013-07-03 13:56:00,91.8,49.8,29.15,ESE,109,0.0,4.0,24,0.00,,,0.00,LWC V2.10 B1813,2013-07-03 18:56:00,
2013-07-03 14:01:00,91.8,47.5,29.15,ENE,57,4.9,6.7,22,0.00,,,0.00,LWC V2.10 B1813,2013-07-03 19:01:00,
2013-07-03 14:06:00,91.6,47.3,29.15,WNW,298,2.7,4.0,22,0.00,,,0.00,LWC V2.10 B1813,2013-07-03 19:06:00,
2013-07-03 14:11:00,91.6,47.3,29.15,NNW,346,0.0,4.0,22,0.00,,,0.00,LWC V2.10 B1813,2013-07-03 19:11:00,
2013-07-03 14:16:00,91.9,46.4,29.15,North,353,3.6,4.0,21,0.00,,,0.00,LWC V2.10 B1813,2013-07-03 19:16:00,
2013-07-03 14:21:00,91.8,46.2,29.15,North,357,3.1,3.6,21,0.00,,,0.00,LWC V2.10 B1813,2013-07-03 19:21:00,
2013-07-03 14:26:00,92.1,46.5,29.15,NNE,15,6.3,7.6,21,0.00,,,0.00,LWC V2.10 B1813,2013-07-03 19:26:00,
2013-07-03 14:31:00,92.3,46.7,29.12,North,10,5.4,5.8,21,0.00,,,0.00,LWC V2.10 B1813,2013-07-03 19:31:00,
2013-07-03 14:36:00,92.5,46.8,29.12,ENE,57,2.2,5.4,21,0.00,,,0.00,LWC V2.10 B1813,2013-07-03 19:36:00,
2013-07-03 14:41:00,91.9,45.1,29.12,ENE,70,2.2,6.3,20,0.00,,,0.00,LWC V2.10 B1813,2013-07-03 19:41:00,
2013-07-03 14:46:00,92.1,46.5,29.12,NNE,21,3.1,4.9,21,0.00,,,0.00,LWC V2.10 B1813,2013-07-03 19:46:00,
2013-07-03 14:51:00,92.3,46.7,29.12,East,101,4.5,4.5,21,0.00,,,0.00,LWC V2.10 B1813,2013-07-03 19:51:00,
2013-07-03 14:56:00,91.8,46.2,29.12,East,86,3.1,3.1,21,0.00,,,0.00,LWC V2.10 B1813,2013-07-03 19:56:00,
2013-07-03 15:01:00,92.3,45.4,29.12,ENE,66,3.1,5.8,20,0.00,,,0.00,LWC V2.10 B1813,2013-07-03 20:01:00,
2013-07-03 15:06:00,93.0,46.0,29.12,NE,48,4.9,5.4,20,0.00,,,0.00,LWC V2.10 B1813,2013-07-03 20:06:00,
2013-07-03 15:11:00,92.8,45.8,29.12,NE,36,3.1,5.4,20,0.00,,,0.00,LWC V2.10 B1813,2013-07-03 20:11:00,
2013-07-03 15:16:00,92.7,44.3,29.12,WNW,302,4.0,5.4,19,0.00,,,0.00,LWC V2.10 B1813,2013-07-03 20:16:00,
2013-07-03 15:21:00,91.4,43.3,29.12,WNW,287,4.0,4.0,19,0.00,,,0.00,LWC V2.10 B1813,2013-07-03 20:21:00,
2013-07-03 15:26:00,92.8,44.5,29.12,WNW,283,0.0,4.0,19,0.00,,,0.00,LWC V2.10 B1813,2013-07-03 20:26:00,
2013-07-03 15:31:00,93.7,43.8,29.12,SSW,208,3.1,3.6,18,0.00,,,0.00,LWC V2.10 B1813,2013-07-03 20:31:00,
2013-07-03 15:36:00,93.9,43.9,29.12,NNW,335,2.2,5.4,18,0.00,,,0.00,LWC V2.10 B1813,2013-07-03 20:36:00,
2013-07-03 15:41:00,94.1,44.1,29.12,ENE,63,5.8,5.8,18,0.00,,,0.00,LWC V2.10 B1813,2013-07-03 20:41:00,
2013-07-03 15:47:00,93.4,43.5,29.12,NNW,342,2.2,4.0,18,0.00,,,0.00,LWC V2.10 B1813,2013-07-03 20:47:00,
2013-07-03 15:52:00,93.7,43.8,29.12,North,357,5.4,6.3,18,0.00,,,0.00,LWC V2.10 B1813,2013-07-03 20:52:00,
2013-07-03 15:57:00,92.8,41.6,29.12,South,178,3.1,5.8,17,0.00,,,0.00,LWC V2.10 B1813,2013-07-03 20:57:00,
2013-07-03 16:02:00,93.2,41.9,29.09,NNW,342,5.4,10.1,17,0.00,,,0.00,LWC V2.10 B1813,2013-07-03 21:02:00,
2013-07-03 16:07:00,92.8,43.1,29.09,NE,34,3.1,8.1,18,0.00,,,0.00,LWC V2.10 B1813,2013-07-03 21:07:00,
2013-07-03 16:12:00,93.0,43.2,29.09,NNW,341,4.0,6.3,18,0.00,,,0.00,LWC V2.10 B1813,2013-07-03 21:12:00,
2013-07-03 16:17:00,93.0,43.2,29.09,East,97,3.6,7.6,18,0.00,,,0.00,LWC V2.10 B1813,2013-07-03 21:17:00,
2013-07-03 16:22:00,92.8,41.6,29.09,SSE,155,4.0,4.0,17,0.00,,,0.00,LWC V2.10 B1813,2013-07-03 21:22:00,
2013-07-03 16:27:00,93.0,43.2,29.09,NE,48,0.0,8.1,18,0.00,,,0.00,LWC V2.10 B1813,2013-07-03 21:27:00,
2013-07-03 16:32:00,93.2,41.9,29.09,North,353,3.6,8.1,17,0.00,,,0.00,LWC V2.10 B1813,2013-07-03 21:32:00,
2013-07-03 16:37:00,93.0,43.2,29.09,NE,48,3.1,5.4,18,0.00,,,0.00,LWC V2.10 B1813,2013-07-03 21:37:00,
2013-07-03 16:42:00,93.7,43.8,29.09,North,357,5.4,5.4,18,0.00,,,0.00,LWC V2.10 B1813,2013-07-03 21:42:00,
2013-07-03 16:47:00,93.9,42.4,29.09,West,270,4.0,5.8,17,0.00,,,0.00,LWC V2.10 B1813,2013-07-03 21:47:00,
2013-07-03 16:52:00,93.0,41.7,29.09,WNW,300,5.4,8.7,17,0.00,,,0.00,LWC V2.10 B1813,2013-07-03 21:52:00,
2013-07-03 16:57:00,92.5,41.3,29.09,NW,315,4.5,6.7,17,0.00,,,0.00,LWC V2.10 B1813,2013-07-03 21:57:00,
2013-07-03 17:02:00,92.8,41.6,29.09,East,93,2.7,6.3,17,0.00,,,0.00,LWC V2.10 B1813,2013-07-03 22:02:00,
2013-07-03 17:07:00,93.0,43.2,29.09,South,183,3.1,4.9,18,0.00,,,0.00,LWC V2.10 B1813,2013-07-03 22:07:00,
2013-07-03 17:12:00,92.8,43.1,29.09,ESE,109,5.8,8.1,18,0.00,,,0.00,LWC V2.10 B1813,2013-07-03 22:12:00,
2013-07-03 17:17:00,91.6,42.0,29.09,East,83,6.3,6.3,18,0.00,,,0.00,LWC V2.10 B1813,2013-07-03 22:17:00,
2013-07-03 17:22:00,91.9,42.3,29.09,ENE,67,0.0,4.0,18,0.00,,,0.00,LWC V2.10 B1813,2013-07-03 22:22:00,
2013-07-03 17:27:00,91.9,42.3,29.09,East,99,4.0,5.8,18,0.00,,,0.00,LWC V2.10 B1813,2013-07-03 22:27:00,
2013-07-03 17:32:00,92.8,44.5,29.09,East,93,2.7,4.9,19,0.00,,,0.00,LWC V2.10 B1813,2013-07-03 22:32:00,
2013-07-03 17:37:00,92.3,42.6,29.09,SE,138,6.3,7.6,18,0.00,,,0.00,LWC V2.10 B1813,2013-07-03 22:37:00,
2013-07-03 17:42:00,91.9,43.7,29.09,SE,146,3.1,5.4,19,0.00,,,0.00,LWC V2.10 B1813,2013-07-03 22:42:00,
2013-07-03 17:47:00,92.5,44.2,29.06,South,176,4.0,4.9,19,0.00,,,0.00,LWC V2.10 B1813,2013-07-03 22:47:00,
2013-07-03 17:52:00,91.6,42.0,29.06,ENE,78,3.6,5.8,18,0.00,,,0.00,LWC V2.10 B1813,2013-07-03 22:52:00,
2013-07-03 17:57:00,91.8,43.6,29.06,ESE,103,3.6,5.8,19,0.00,,,0.00,LWC V2.10 B1813,2013-07-03 22:57:00,
2013-07-03 18:02:00,91.2,43.2,29.09,ESE,113,0.0,6.3,19,0.00,,,0.00,LWC V2.10 B1813,2013-07-03 23:02:00,
2013-07-03 18:07:00,90.9,41.5,29.09,SE,142,4.0,5.8,18,0.00,,,0.00,LWC V2.10 B1813,2013-07-03 23:07:00,
2013-07-03 18:12:00,91.4,43.3,29.09,ESE,114,3.1,3.6,19,0.00,,,0.00,LWC V2.10 B1813,2013-07-03 23:12:00,
2013-07-03 18:17:00,91.2,43.2,29.06,SE,128,2.2,4.9,19,0.00,,,0.00,LWC V2.10 B1813,2013-07-03 23:17:00,
2013-07-03 18:22:00,91.6,43.5,29.06,ENE,58,4.0,4.0,19,0.00,,,0.00,LWC V2.10 B1813,2013-07-03 23:22:00,
2013-07-03 18:27:00,91.0,43.0,29.06,East,98,2.7,6.3,19,0.00,,,0.00,LWC V2.10 B1813,2013-07-03 23:27:00,
2013-07-03 18:32:00,91.0,43.0,29.06,ENE,57,2.7,6.3,19,0.00,,,0.00,LWC V2.10 B1813,2013-07-03 23:32:00,
2013-07-03 18:37:00,90.9,42.9,29.06,East,82,2.7,5.8,19,0.00,,,0.00,LWC V2.10 B1813,2013-07-03 23:37:00,
2013-07-03 18:42:00,91.0,44.4,29.06,ESE,122,4.9,4.9,20,0.00,,,0.00,LWC V2.10 B1813,2013-07-03 23:42:00,
2013-07-03 18:47:00,90.9,44.2,29.06,ESE,112,2.2,4.9,20,0.00,,,0.00,LWC V2.10 B1813,2013-07-03 23:47:00,
2013-07-03 18:52:00,90.9,44.2,29.06,East,91,0.0,2.2,20,0.00,,,0.00,LWC V2.10 B1813,2013-07-03 23:52:00,
2013-07-03 18:57:00,90.9,44.2,29.06,East,97,3.6,4.0,20,0.00,,,0.00,LWC V2.10 B1813,2013-07-03 23:57:00,
2013-07-03 19:02:00,90.5,42.6,29.06,ESE,110,5.4,5.4,19,0.00,,,0.00,LWC V2.10 B1813,2013-07-04 00:02:00,
2013-07-03 19:07:00,90.1,42.3,29.06,SE,136,5.8,5.8,19,0.00,,,0.00,LWC V2.10 B1813,2013-07-04 00:07:00,
2013-07-03 19:12:00,89.8,42.0,29.06,SE,142,6.3,6.3,19,0.00,,,0.00,LWC V2.10 B1813,2013-07-04 00:12:00,
2013-07-03 19:17:00,89.6,41.8,29.06,East,88,5.4,10.1,19,0.00,,,0.00,LWC V2.10 B1813,2013-07-04 00:17:00,
2013-07-03 19:22:00,89.4,43.0,29.06,ENE,61,5.4,5.4,20,0.00,,,0.00,LWC V2.10 B1813,2013-07-04 00:22:00,
2013-07-03 19:27:00,89.4,43.0,29.06,East,97,0.0,4.0,20,0.00,,,0.00,LWC V2.10 B1813,2013-07-04 00:27:00,
2013-07-03 19:32:00,89.2,42.9,29.09,East,97,2.2,4.9,20,0.00,,,0.00,LWC V2.10 B1813,2013-07-04 00:32:00,
2013-07-03 19:37:00,88.9,42.6,29.09,ESE,105,3.1,3.6,20,0.00,,,0.00,LWC V2.10 B1813,2013-07-04 00:37:00,
2013-07-03 19:42:00,88.5,42.3,29.09,East,100,4.0,5.8,20,0.00,,,0.00,LWC V2.10 B1813,2013-07-04 00:42:00,
2013-07-03 19:47:00,88.5,42.3,29.09,East,81,2.7,3.6,20,0.00,,,0.00,LWC V2.10 B1813,2013-07-04 00:47:00,
2013-07-03 19:52:00,88.3,43.4,29.09,East,86,3.6,3.6,21,0.00,,,0.00,LWC V2.10 B1813,2013-07-04 00:52:00,
2013-07-03 19:57:00,88.2,43.3,29.09,NE,55,2.7,2.7,21,0.00,,,0.00,LWC V2.10 B1813,2013-07-04 00:57:00,
2013-07-03 20:02:00,87.8,43.0,29.09,East,96,3.1,3.1,21,0.00,,,0.00,LWC V2.10 B1813,2013-07-04 01:02:00,
2013-07-03 20:07:00,87.4,42.7,29.09,East,96,0.0,0.0,21,0.00,,,0.00,LWC V2.10 B1813,2013-07-04 01:07:00,
2013-07-03 20:12:00,87.1,43.6,29.09,East,101,0.0,0.0,22,0.00,,,0.00,LWC V2.10 B1813,2013-07-04 01:12:00,
2013-07-03 20:17:00,86.7,43.3,29.09,ESE,102,0.0,0.0,22,0.00,,,0.00,LWC V2.10 B1813,2013-07-04 01:17:00,
2013-07-03 20:22:00,86.2,41.6,29.09,ENE,62,0.0,2.2,21,0.00,,,0.00,LWC V2.10 B1813,2013-07-04 01:22:00,
2013-07-03 20:27:00,85.8,42.5,29.09,ENE,78,2.2,2.7,22,0.00,,,0.00,LWC V2.10 B1813,2013-07-04 01:27:00,
2013-07-03 20:32:00,85.3,42.1,29.09,ENE,72,0.0,2.2,22,0.00,,,0.00,LWC V2.10 B1813,2013-07-04 01:32:00,
2013-07-03 20:37:00,84.9,41.8,29.09,ENE,73,0.0,2.7,22,0.00,,,0.00,LWC V2.10 B1813,2013-07-04 01:37:00,
2013-07-03 20:42:00,84.4,41.4,29.09,East,79,0.0,2.2,22,0.00,,,0.00,LWC V2.10 B1813,2013-07-04 01:42:00,
2013-07-03 20:47:00,84.0,41.1,29.09,ENE,60,2.2,2.2,22,0.00,,,0.00,LWC V2.10 B1813,2013-07-04 01:47:00,
2013-07-03 20:52:00,83.8,40.9,29.09,NNE,27,0.0,2.2,22,0.00,,,0.00,LWC V2.10 B1813,2013-07-04 01:52:00,
2013-07-03 20:57:00,83.5,40.6,29.09,ENE,59,2.7,2.7,22,0.00,,,0.00,LWC V2.10 B1813,2013-07-04 01:57:00,
2013-07-03 21:02:00,83.3,40.5,29.09,NE,49,0.0,0.0,22,0.00,,,0.00,LWC V2.10 B1813,2013-07-04 02:02:00,
2013-07-03 21:07:00,83.3,40.5,29.09,ENE,69,0.0,2.2,22,0.00,,,0.00,LWC V2.10 B1813,2013-07-04 02:07:00,
2013-07-03 21:12:00,83.1,40.3,29.09,ESE,102,2.2,2.7,22,0.00,,,0.00,LWC V2.10 B1813,2013-07-04 02:12:00,
2013-07-03 21:17:00,82.9,40.2,29.09,East,98,0.0,3.1,22,0.00,,,0.00,LWC V2.10 B1813,2013-07-04 02:17:00,
2013-07-03 21:22:00,82.6,39.9,29.09,East,96,2.7,2.7,22,0.00,,,0.00,LWC V2.10 B1813,2013-07-04 02:22:00,
2013-07-03 21:27:00,82.4,39.7,29.09,East,93,2.7,3.1,22,0.00,,,0.00,LWC V2.10 B1813,2013-07-04 02:27:00,
2013-07-03 21:32:00,82.4,39.7,29.09,ENE,75,2.2,2.7,22,0.00,,,0.00,LWC V2.10 B1813,2013-07-04 02:32:00,
2013-07-03 21:37:00,82.2,40.7,29.09,NE,53,2.7,3.1,23,0.00,,,0.00,LWC V2.10 B1813,2013-07-04 02:37:00,
2013-07-03 21:42:00,82.2,40.7,29.09,NE,53,2.2,2.7,23,0.00,,,0.00,LWC V2.10 B1813,2013-07-04 02:42:00,
2013-07-03 21:47:00,82.4,39.7,29.09,ENE,78,2.7,4.0,22,0.00,,,0.00,LWC V2.10 B1813,2013-07-04 02:47:00,
2013-07-03 21:52:00,82.4,39.7,29.09,East,82,0.0,2.7,22,0.00,,,0.00,LWC V2.10 B1813,2013-07-04 02:52:00,
2013-07-03 21:57:00,82.4,39.7,29.09,NE,56,0.0,2.7,22,0.00,,,0.00,LWC V2.10 B1813,2013-07-04 02:57:00,
2013-07-03 22:02:00,82.4,39.7,29.09,ENE,77,0.0,2.2,22,0.00,,,0.00,LWC V2.10 B1813,2013-07-04 03:02:00,
2013-07-03 22:07:00,82.2,39.6,29.09,ENE,76,2.2,2.7,22,0.00,,,0.00,LWC V2.10 B1813,2013-07-04 03:07:00,
2013-07-03 22:12:00,82.0,39.4,29.09,NNW,341,2.2,2.7,22,0.00,,,0.00,LWC V2.10 B1813,2013-07-04 03:12:00,
2013-07-03 22:17:00,81.9,39.3,29.09,NE,51,2.2,3.6,22,0.00,,,0.00,LWC V2.10 B1813,2013-07-04 03:17:00,
2013-07-03 22:22:00,81.9,39.3,29.09,East,83,0.0,2.2,22,0.00,,,0.00,LWC V2.10 B1813,2013-07-04 03:22:00,
2013-07-03 22:27:00,81.7,39.1,29.09,ENE,63,0.0,2.2,22,0.00,,,0.00,LWC V2.10 B1813,2013-07-04 03:27:00,
2013-07-03 22:32:00,81.7,40.3,29.09,ENE,65,2.2,2.7,23,0.00,,,0.00,LWC V2.10 B1813,2013-07-04 03:32:00,
2013-07-03 22:35:00,81.7,40.3,29.09,SE,132,4.0,4.0,23,0.00,,,0.00,LWC V2.10 B1813,2013-07-04 03:35:00,
2013-07-03 22:40:00,81.7,40.3,29.09,East,83,2.2,3.1,23,0.00,,,0.00,LWC V2.10 B1813,2013-07-04 03:40:00,
2013-07-03 22:46:00,81.5,40.1,29.09,ESE,112,2.2,3.6,23,0.00,,,0.00,LWC V2.10 B1813,2013-07-04 03:46:00,
2013-07-03 22:51:00,81.1,39.8,29.12,ENE,58,0.0,3.1,23,0.00,,,0.00,LWC V2.10 B1813,2013-07-04 03:51:00,
2013-07-03 22:56:00,80.8,40.6,29.12,NE,50,2.2,2.7,24,0.00,,,0.00,LWC V2.10 B1813,2013-07-04 03:56:00,
2013-07-03 23:01:00,80.8,40.6,29.12,NE,48,2.2,2.7,24,0.00,,,0.00,LWC V2.10 B1813,2013-07-04 04:01:00,
2013-07-03 23:06:00,80.6,40.4,29.12,ENE,67,2.2,3.1,24,0.00,,,0.00,LWC V2.10 B1813,2013-07-04 04:06:00,
2013-07-03 23:11:00,80.6,40.4,29.12,East,96,3.1,3.1,24,0.00,,,0.00,LWC V2.10 B1813,2013-07-04 04:11:00,
2013-07-03 23:16:00,80.6,41.5,29.12,East,84,2.2,3.6,25,0.00,,,0.00,LWC V2.10 B1813,2013-07-04 04:16:00,
2013-07-03 23:21:00,80.6,41.5,29.12,ESE,109,0.0,2.7,25,0.00,,,0.00,LWC V2.10 B1813,2013-07-04 04:21:00,
2013-07-03 23:26:00,80.4,41.4,29.12,East,83,3.1,3.1,25,0.00,,,0.00,LWC V2.10 B1813,2013-07-04 04:26:00,
2013-07-03 23:31:00,80.2,41.2,29.12,ESE,113,2.7,3.6,25,0.00,,,0.00,LWC V2.10 B1813,2013-07-04 04:31:00,
2013-07-03 23:36:00,79.9,42.9,29.12,East,96,3.1,8.1,27,0.00,,,0.00,LWC V2.10 B1813,2013-07-04 04:36:00,
2013-07-03 23:41:00,79.2,43.2,29.12,East,87,8.3,8.3,28,0.00,,,0.00,LWC V2.10 B1813,2013-07-04 04:41:00,
2013-07-03 23:46:00,79.2,44.1,29.12,East,88,5.4,10.5,29,0.00,,,0.00,LWC V2.10 B1813,2013-07-04 04:46:00,
2013-07-03 23:51:00,79.0,44.9,29.12,ENE,75,6.3,6.3,30,0.00,,,0.00,LWC V2.10 B1813,2013-07-04 04:51:00,
2013-07-03 23:56:00,78.4,45.3,29.12,ESE,108,5.4,8.3,31,0.00,,,0.00,LWC V2.10 B1813,2013-07-04 04:56:00,